EDT,Max TemperatureF,Mean TemperatureF,Min TemperatureF,Max Dew PointF,MeanDew PointF,Min DewpointF,Max Humidity, Mean Humidity, Min Humidity, Max Sea Level PressureIn, Mean Sea Level PressureIn, Min Sea Level PressureIn, Max VisibilityMiles, Mean VisibilityMiles, Min VisibilityMiles, Max Wind SpeedMPH, Mean Wind SpeedMPH, Max Gust SpeedMPH,PrecipitationIn, CloudCover, Events, WindDirDegrees
2013-6-1,94,77,60,68,63,57,100,65,30,29.96,29.89,29.83,10,9,6,16,5,22,0.00,0,,210
2013-6-2,93,79,65,69,66,61,100,68,36,29.84,29.78,29.67,10,7,1,24,8,31,1.05,5,Rain-Thunderstorm,172
2013-6-3,80,68,56,67,60,44,100,68,36,29.83,29.79,29.74,10,8,2,16,6,23,0.08,4,Rain,211
2013-6-4,68,57,46,46,41,39,86,61,35,30.10,29.94,29.83,10,10,10,23,9,31,0.00,1,,310
2013-6-5,75,59,43,49,41,33,100,62,23,30.20,30.14,30.09,10,10,10,16,4,23,0.00,0,,313
2013-6-6,73,61,48,53,49,41,96,67,37,30.21,30.15,30.11,10,10,10,13,4,17,0.01,3,Rain,113
2013-6-7,55,53,50,53,50,48,100,93,86,30.12,30.05,29.90,10,6,2,12,4,16,1.04,8,Rain,50
2013-6-8,75,64,52,59,55,50,100,79,57,30.01,29.80,29.69,10,7,2,18,8,24,0.78,8,Rain,318
2013-6-9,79,65,50,57,53,49,100,69,38,30.17,30.09,30.01,10,10,10,20,6,24,0.00,1,,294
2013-6-10,71,60,48,58,54,47,100,79,57,30.21,30.16,30.04,10,10,6,10,3,14,0.26,3,Rain,129
2013-6-11,61,58,54,56,55,53,100,89,78,30.04,29.77,29.60,10,6,1,12,4,17,1.12,8,Rain,61
2013-6-12,70,62,53,55,53,50,100,77,53,29.82,29.65,29.57,10,10,9,24,9,32,T,7,Rain,309
2013-6-13,68,58,47,58,53,47,100,78,56,29.82,29.77,29.73,10,9,4,13,3,16,0.24,5,Rain,149
2013-6-14,78,65,51,54,52,46,100,67,33,29.79,29.72,29.69,10,9,5,14,3,20,0.10,5,Rain,307
2013-6-15,78,63,47,51,45,38,100,63,25,29.93,29.88,29.80,10,10,10,17,6,23,0.00,0,,303
2013-6-16,78,63,47,59,53,47,96,67,38,29.93,29.83,29.71,10,10,9,15,3,20,T,3,Rain,207
2013-6-17,85,70,55,62,58,54,100,69,37,29.90,29.83,29.78,10,9,2,38,5,47,0.15,3,Rain-Thunderstorm,246
2013-6-18,64,58,52,61,55,53,100,86,72,29.98,29.93,29.89,10,6,0,10,2,25,0.05,5,Fog,344
2013-6-19,75,61,47,55,48,39,100,65,29,30.17,30.01,29.93,10,8,0,12,4,16,0.00,2,Fog,323
2013-6-20,79,61,43,53,46,41,100,64,27,30.28,30.22,30.17,10,10,10,13,2,16,0.00,0,,231
2013-6-21,84,67,49,57,52,46,93,61,28,30.25,30.22,30.19,10,10,10,12,3,17,0.00,0,,317
2013-6-22,86,70,53,64,59,52,100,72,44,30.22,30.16,30.09,10,10,9,15,3,21,0.01,3,Rain,209
2013-6-23,91,78,64,72,67,63,100,76,52,30.14,30.05,29.95,10,9,3,14,3,20,0.04,4,Rain-Thunderstorm,159
2013-6-24,93,80,67,70,67,62,100,69,38,29.99,29.93,29.86,10,9,4,22,5,30,0.01,1,Rain-Thunderstorm,275
2013-6-25,91,78,64,70,67,64,100,72,44,29.91,29.81,29.73,10,7,0,15,4,22,0.10,3,Fog-Rain-Thunderstorm,246
2013-6-26,78,70,62,72,67,64,100,87,74,29.87,29.79,29.73,10,5,0,14,2,17,0.92,6,Fog-Rain-Thunderstorm,328
2013-6-27,72,66,60,66,62,60,100,92,84,29.87,29.84,29.78,10,6,1,9,5,14,0.06,8,Rain,129
2013-6-28,73,65,56,70,62,55,100,97,93,29.77,29.57,29.49,10,8,0,15,4,18,0.71,8,Fog-Rain-Thunderstorm,34
2013-6-29,84,75,65,70,67,65,100,78,55,29.70,29.57,29.52,10,8,4,17,7,25,0.01,5,,171
2013-6-30,87,76,65,70,67,65,100,76,51,29.93,29.81,29.71,10,8,4,14,4,17,0.04,2,Rain-Thunderstorm,171